Погода в Краснополье

Россия / Волгоградская область     50°29′58″N   41°27′56″E
темп.,
°C
ветер,
м/с
пор.,
м/с
влажн.,
%
обл.,
%
осадки,
мм/ч
давл.,
гПа
погр.,
м
19 сентября, вс
вс1900:00+9в71358100 0.0 1019383
03:00+9вюв7154796 0.0 1019406
06:00+8вюв71649100 0.0 1018389
09:00+12вюв81544100 0.0 1017503
12:00+15юв81246100 0.0 1017756
15:00+13вюв61368100 0.6 1015610
18:00+15ююв51261100 0.2 1014543
21:00+12юв81787100 2.9 1013711
20 сентября, пн
пн2000:00+12юв81789100 4.8 1012804
03:00+12юв71491100 4.9 1011550
06:00+12вюв61097100 0.1 1010369
09:00+13юв61093100 0.9 1010482
12:00+15юв6989100 0.1 1011612
15:00+16юв6986100 1.1 1010649
18:00+14вюв699299 4.1 1010287
21:00+12вюв6109733 5.6 1011237
21 сентября, вт
вт2100:00+13ююз1195100 0.9 101132
03:00+12ююв369648 2.3 1011219
06:00+11зюз479637 0.6 1011242
09:00+12зюз56715 0.6 1012741
12:00+15зюз565529 0.0 10121349
15:00+15юз4752100 0.1 10111767
18:00+12зюз2573100 0.3 1011282
21:00+10з3684100 0.4 1012248
22 сентября, ср
ср2200:00+10зюз3679100 0.0 1011494
03:00+9зюз367998 0.0 1011600
06:00+9зюз3581100 0.0 1011614
09:00+8зюз5778100 0.1 1012736
12:00+9зюз5675100 0.1 1012834
15:00+10зюз5670100 0.2 10121045
18:00+9зюз357789 0.1 1012496
21:00+8юз377886 0.1 1013304
23 сентября, чт
чт2300:00+7юз348487 0.0 1013149
03:00+8зюз2483100 0.0 1012204
06:00+8юз2382100 0.0 1012147
09:00+8ююз2475100 0.0 1013365
12:00+10ююз3462100 0.0 10121011
15:00+11ююз3458100 0.1 10111095
18:00+10ююз2263100 0.0 101037
21:00+8зсз2375100 0.0 1010111